| time (UTC) | temp F | wind direction | speed MPH | gust MPH | rain 1hr in | rain 24hr in | rain mn in | humidity % | barometer mb |
| 20260509052959 | 49 | 155 | 1.0 | 3.0 | 0.00 | 0.00 | 0.00 | 40 | 1003.7 |
| 20260509052458 | 49 | 243 | 0.0 | 4.0 | 0.00 | 0.00 | 0.00 | 41 | 1003.7 |
| 20260509051959 | 49 | 203 | 1.0 | 4.0 | 0.00 | 0.00 | 0.00 | 41 | 1003.6 |
| 20260509051459 | 49 | 218 | 1.0 | 4.0 | 0.00 | 0.00 | 0.00 | 41 | 1003.8 |
| 20260509050958 | 48 | 285 | 1.0 | 5.0 | 0.00 | 0.00 | 0.00 | 42 | 1003.8 |
| 20260509050459 | 48 | 147 | 2.0 | 5.0 | 0.00 | 0.00 | 0.00 | 42 | 1003.8 |
| 20260509045958 | 47 | 222 | 1.0 | 4.0 | 0.00 | 0.00 | 0.00 | 43 | 1003.9 |
| 20260509045458 | 47 | 209 | 1.0 | 4.0 | 0.00 | 0.00 | 0.00 | 43 | 1003.9 |
| 20260509044958 | 46 | 223 | 1.0 | 3.0 | 0.00 | 0.00 | 0.00 | 44 | 1003.7 |
| 20260509044459 | 46 | 105 | 0.0 | 3.0 | 0.00 | 0.00 | 0.00 | 45 | 1003.8 |
| 20260509043958 | 45 | 145 | 0.0 | 2.0 | 0.00 | 0.00 | 0.00 | 45 | 1003.8 |
| 20260509043459 | 45 | 130 | 0.0 | 2.0 | 0.00 | 0.00 | 0.00 | 47 | 1003.8 |
| 20260509042958 | 44 | 99 | 0.0 | 4.0 | 0.00 | 0.00 | 0.00 | 48 | 1003.9 |
| 20260509042459 | 44 | 151 | 1.0 | 4.0 | 0.00 | 0.00 | 0.00 | 48 | 1003.8 |
| 20260509041958 | 44 | 224 | 1.0 | 3.0 | 0.00 | 0.00 | 0.00 | 50 | 1004.0 |
| 20260509041458 | 44 | 87 | 0.0 | 2.0 | 0.00 | 0.00 | 0.00 | 51 | 1004.0 |
| 20260509040958 | 44 | 193 | 1.0 | 2.0 | 0.00 | 0.00 | 0.00 | 55 | 1004.0 |
| 20260509040458 | 44 | 182 | 0.0 | 1.0 | 0.00 | 0.00 | 0.00 | 59 | 1004.1 |
| 20260509040004 | 44 | 182 | 0.0 | 1.0 | 0.00 | 0.00 | 0.00 | 59 | 1004.2 |
| 20260509035459 | 45 | 182 | 0.0 | 1.0 | 0.00 | 0.00 | 0.00 | 59 | 1004.2 |
| 20260509034959 | 45 | 182 | 0.0 | 1.0 | 0.00 | 0.00 | 0.00 | 59 | 1004.2 |
| 20260509034459 | 45 | 182 | 0.0 | 1.0 | 0.00 | 0.00 | 0.00 | 56 | 1004.5 |
| 20260509034000 | 45 | 176 | 0.0 | 1.0 | 0.00 | 0.00 | 0.00 | 55 | 1004.7 |
| 20260509033459 | 45 | 168 | 0.0 | 1.0 | 0.00 | 0.00 | 0.00 | 53 | 1004.6 |
| 20260509032959 | 45 | 168 | 0.0 | 1.0 | 0.00 | 0.00 | 0.00 | 52 | 1004.5 |
| 20260509032459 | 45 | 165 | 0.0 | 1.0 | 0.00 | 0.00 | 0.00 | 53 | 1004.5 |
| 20260509031959 | 45 | 241 | 0.0 | 1.0 | 0.00 | 0.00 | 0.00 | 53 | 1004.6 |
| 20260509031459 | 45 | 241 | 0.0 | 1.0 | 0.00 | 0.00 | 0.00 | 52 | 1004.7 |
| 20260509030958 | 45 | 246 | 0.0 | 2.0 | 0.00 | 0.00 | 0.00 | 52 | 1004.7 |
| 20260509030459 | 45 | 250 | 1.0 | 2.0 | 0.00 | 0.00 | 0.00 | 53 | 1005.0 |
| 20260509025959 | 45 | 246 | 0.0 | 2.0 | 0.00 | 0.00 | 0.00 | 54 | 1004.8 |
| 20260509025458 | 46 | 246 | 0.0 | 2.0 | 0.00 | 0.00 | 0.00 | 53 | 1004.9 |
| 20260509025000 | 46 | 246 | 0.0 | 1.0 | 0.00 | 0.00 | 0.00 | 56 | 1005.0 |
| 20260509024459 | 46 | 246 | 0.0 | 1.0 | 0.00 | 0.00 | 0.00 | 55 | 1005.1 |
| 20260509024000 | 47 | 246 | 0.0 | 1.0 | 0.00 | 0.00 | 0.00 | 55 | 1004.9 |
| 20260509023459 | 47 | 246 | 0.0 | 1.0 | 0.00 | 0.00 | 0.00 | 55 | 1005.1 |
| 20260509022959 | 48 | 246 | 0.0 | 1.0 | 0.00 | 0.00 | 0.00 | 54 | 1005.1 |
| 20260509022500 | 48 | 246 | 0.0 | 0.0 | 0.00 | 0.00 | 0.00 | 53 | 1005.0 |
| 20260509014959 | 51 | 246 | 0.0 | 1.0 | 0.00 | 0.00 | 0.00 | 43 | 1004.9 |
| 20260509014458 | 51 | 246 | 0.0 | 1.0 | 0.00 | 0.00 | 0.00 | 43 | 1004.9 |
| 20260509013959 | 52 | 246 | 0.0 | 1.0 | 0.00 | 0.00 | 0.00 | 43 | 1004.9 |
| 20260509013459 | 53 | 246 | 0.0 | 0.0 | 0.00 | 0.00 | 0.00 | 41 | 1004.9 |
| 20260509012959 | 53 | 246 | 0.0 | 0.0 | 0.00 | 0.00 | 0.00 | 41 | 1005.0 |
| 20260509012459 | 54 | 246 | 0.0 | 0.0 | 0.00 | 0.00 | 0.00 | 40 | 1004.9 |
| 20260509011958 | 54 | 246 | 0.0 | 0.0 | 0.00 | 0.00 | 0.00 | 40 | 1004.9 |
| 20260509011500 | 55 | 246 | 0.0 | 0.0 | 0.00 | 0.00 | 0.00 | 39 | 1005.0 |
| 20260509010959 | 56 | 246 | 0.0 | 0.0 | 0.00 | 0.00 | 0.00 | 38 | 1004.9 |
| 20260509010500 | 56 | 246 | 0.0 | 0.0 | 0.00 | 0.00 | 0.00 | 38 | 1004.9 |
| 20260509010001 | 57 | 246 | 0.0 | 0.0 | 0.00 | 0.00 | 0.00 | 37 | 1005.0 |
| 20260509005500 | 58 | 246 | 0.0 | 0.0 | 0.00 | 0.00 | 0.00 | 36 | 1005.0 |
| 20260509005001 | 58 | 246 | 0.0 | 0.0 | 0.00 | 0.00 | 0.00 | 36 | 1005.0 |
| 20260509004500 | 59 | 246 | 0.0 | 0.0 | 0.00 | 0.00 | 0.00 | 35 | 1005.0 |
| 20260509004000 | 59 | 246 | 0.0 | 1.0 | 0.00 | 0.00 | 0.00 | 35 | 1005.0 |
| 20260509003501 | 59 | 246 | 0.0 | 1.0 | 0.00 | 0.00 | 0.00 | 34 | 1004.9 |
| 20260509003000 | 60 | 246 | 0.0 | 0.0 | 0.00 | 0.00 | 0.00 | 33 | 1005.0 |
| 20260509002500 | 60 | 246 | 0.0 | 1.0 | 0.00 | 0.00 | 0.00 | 32 | 1005.0 |
| 20260509002000 | 60 | 246 | 0.0 | 2.0 | 0.00 | 0.00 | 0.00 | 32 | 1005.0 |
| 20260509001500 | 60 | 238 | 0.0 | 2.0 | 0.00 | 0.00 | 0.00 | 32 | 1005.1 |
| 20260509001000 | 60 | 253 | 0.0 | 4.0 | 0.00 | 0.00 | 0.00 | 33 | 1005.2 |
| 20260509000500 | 61 | 218 | 1.0 | 5.0 | 0.00 | 0.00 | 0.00 | 32 | 1005.2 |
| 20260508235959 | 61 | 225 | 1.0 | 5.0 | 0.00 | 0.00 | 0.00 | 32 | 1005.4 |
| 20260508235459 | 60 | 229 | 1.0 | 5.0 | 0.00 | 0.00 | 0.00 | 32 | 1005.4 |
| 20260508234958 | 61 | 276 | 1.0 | 5.0 | 0.00 | 0.00 | 0.00 | 32 | 1005.4 |
| 20260508234500 | 61 | 260 | 2.0 | 9.0 | 0.00 | 0.00 | 0.00 | 33 | 1005.4 |
| 20260508233958 | 61 | 328 | 3.0 | 9.0 | 0.00 | 0.00 | 0.00 | 32 | 1005.4 |
| 20260508233458 | 61 | 282 | 2.0 | 6.0 | 0.00 | 0.00 | 0.00 | 33 | 1005.4 |
| 20260508232959 | 61 | 243 | 2.0 | 5.0 | 0.00 | 0.00 | 0.00 | 34 | 1005.4 |
| 20260508232459 | 61 | 251 | 2.0 | 6.0 | 0.00 | 0.00 | 0.00 | 33 | 1005.4 |
| 20260508231959 | 61 | 266 | 2.0 | 6.0 | 0.00 | 0.00 | 0.00 | 33 | 1005.4 |
| 20260508231458 | 61 | 334 | 3.0 | 8.0 | 0.00 | 0.00 | 0.00 | 32 | 1005.4 |
| 20260508220459 | 63 | 337 | 3.0 | 8.0 | 0.00 | 0.00 | 0.00 | 32 | 1005.4 |
| 20260508215958 | 63 | 276 | 2.0 | 8.0 | 0.00 | 0.00 | 0.00 | 32 | 1005.5 |
| 20260508215459 | 64 | 340 | 3.0 | 6.0 | 0.00 | 0.00 | 0.00 | 31 | 1005.5 |
| 20260508214958 | 64 | 259 | 2.0 | 5.0 | 0.00 | 0.00 | 0.00 | 32 | 1005.5 |
| 20260508214459 | 64 | 260 | 3.0 | 8.0 | 0.00 | 0.00 | 0.00 | 28 | 1005.4 |
| 20260508213959 | 63 | 257 | 3.0 | 9.0 | 0.00 | 0.00 | 0.00 | 31 | 1005.4 |
| 20260508213459 | 63 | 266 | 4.0 | 10.0 | 0.00 | 0.00 | 0.00 | 29 | 1005.5 |
| 20260508205959 | 64 | 293 | 3.0 | 10.0 | 0.00 | 0.00 | 0.00 | 30 | 1005.7 |
| 20260508205458 | 64 | 336 | 6.0 | 10.0 | 0.00 | 0.00 | 0.00 | 30 | 1005.8 |
| 20260508204958 | 64 | 226 | 4.0 | 10.0 | 0.00 | 0.00 | 0.00 | 28 | 1005.7 |
| 20260508204458 | 64 | 355 | 4.0 | 9.0 | 0.00 | 0.00 | 0.00 | 30 | 1005.7 |
| 20260508203959 | 64 | 217 | 4.0 | 10.0 | 0.00 | 0.00 | 0.00 | 30 | 1005.8 |
| 20260508203458 | 64 | 324 | 5.0 | 10.0 | 0.00 | 0.00 | 0.00 | 29 | 1005.8 |
| 20260508202959 | 65 | 260 | 3.0 | 5.0 | 0.00 | 0.00 | 0.00 | 29 | 1006.0 |
| 20260508202456 | 65 | 254 | 3.0 | 9.0 | 0.00 | 0.00 | 0.00 | 31 | 1006.2 |
| 20260508201956 | 65 | 209 | 4.0 | 9.0 | 0.00 | 0.00 | 0.00 | 29 | 1006.1 |
| 20260508201457 | 65 | 305 | 3.0 | 9.0 | 0.00 | 0.00 | 0.00 | 29 | 1006.1 |
| 20260508200957 | 65 | 221 | 4.0 | 9.0 | 0.00 | 0.00 | 0.00 | 29 | 1006.1 |
| 20260508200457 | 65 | 281 | 2.0 | 9.0 | 0.00 | 0.00 | 0.00 | 30 | 1006.2 |
| 20260508195958 | 65 | 307 | 4.0 | 11.0 | 0.00 | 0.00 | 0.00 | 29 | 1006.3 |
| 20260508192456 | 65 | 195 | 4.0 | 8.0 | 0.00 | 0.00 | 0.00 | 32 | 1006.7 |
| 20260508191956 | 65 | 199 | 3.0 | 8.0 | 0.00 | 0.00 | 0.00 | 33 | 1006.7 |
| 20260508191455 | 64 | 318 | 4.0 | 7.0 | 0.00 | 0.00 | 0.00 | 31 | 1006.7 |
| 20260508190956 | 64 | 299 | 3.0 | 9.0 | 0.00 | 0.00 | 0.00 | 34 | 1006.7 |
| 20260508190455 | 63 | 305 | 4.0 | 9.0 | 0.00 | 0.00 | 0.00 | 32 | 1006.8 |
| 20260508185958 | 64 | 224 | 4.0 | 9.0 | 0.00 | 0.00 | 0.00 | 32 | 1006.8 |
| 20260508185457 | 62 | 236 | 4.0 | 8.0 | 0.00 | 0.00 | 0.00 | 33 | 1006.9 |
| 20260508184957 | 63 | 352 | 2.0 | 7.0 | 0.00 | 0.00 | 0.00 | 39 | 1007.0 |
| 20260508184457 | 63 | 325 | 3.0 | 7.0 | 0.00 | 0.00 | 0.00 | 37 | 1007.0 |
| 20260508183957 | 62 | 266 | 4.0 | 10.0 | 0.00 | 0.00 | 0.00 | 37 | 1007.0 |
| 20260508183458 | 63 | 271 | 4.0 | 10.0 | 0.00 | 0.00 | 0.00 | 37 | 1007.0 |
| 20260508182958 | 63 | 213 | 4.0 | 9.0 | 0.00 | 0.00 | 0.00 | 36 | 1007.1 |
| 20260508182457 | 62 | 266 | 3.0 | 11.0 | 0.00 | 0.00 | 0.00 | 37 | 1007.3 |
| 20260508174956 | 61 | 230 | 2.0 | 6.0 | 0.00 | 0.00 | 0.00 | 37 | 1007.5 |
| 20260508174456 | 61 | 350 | 2.0 | 8.0 | 0.00 | 0.00 | 0.00 | 39 | 1007.6 |
| 20260508173956 | 60 | 220 | 3.0 | 8.0 | 0.00 | 0.00 | 0.00 | 32 | 1007.9 |
| 20260508173456 | 61 | 205 | 1.0 | 11.0 | 0.00 | 0.00 | 0.00 | 34 | 1008.0 |
| 20260508172956 | 62 | 220 | 4.0 | 11.0 | 0.00 | 0.00 | 0.00 | 35 | 1008.1 |
| 20260508172456 | 62 | 280 | 3.0 | 6.0 | 0.00 | 0.00 | 0.00 | 37 | 1008.1 |
| 20260508171955 | 61 | 261 | 2.0 | 6.0 | 0.00 | 0.00 | 0.00 | 36 | 1008.2 |
| 20260508171457 | 61 | 23 | 2.0 | 9.0 | 0.00 | 0.00 | 0.00 | 37 | 1008.4 |
| 20260508170956 | 62 | 209 | 4.0 | 10.0 | 0.00 | 0.00 | 0.00 | 36 | 1008.4 |
| 20260508170455 | 61 | 257 | 4.0 | 10.0 | 0.00 | 0.00 | 0.00 | 32 | 1008.4 |
| 20260508165956 | 61 | 271 | 3.0 | 9.0 | 0.00 | 0.00 | 0.00 | 33 | 1008.4 |
| 20260508165456 | 61 | 318 | 3.0 | 11.0 | 0.00 | 0.00 | 0.00 | 32 | 1008.6 |
| 20260508164956 | 61 | 183 | 4.0 | 11.0 | 0.00 | 0.00 | 0.00 | 31 | 1008.7 |
| 20260508164456 | 62 | 294 | 2.0 | 8.0 | 0.00 | 0.00 | 0.00 | 34 | 1008.8 |
| 20260508163957 | 62 | 244 | 3.0 | 11.0 | 0.00 | 0.00 | 0.00 | 31 | 1008.8 |
| 20260508163456 | 61 | 339 | 3.0 | 12.0 | 0.00 | 0.00 | 0.00 | 32 | 1008.9 |
| 20260508162955 | 61 | 237 | 5.0 | 10.0 | 0.00 | 0.00 | 0.00 | 33 | 1008.9 |
| 20260508162456 | 61 | 276 | 3.0 | 10.0 | 0.00 | 0.00 | 0.00 | 32 | 1008.9 |
| 20260508161956 | 61 | 302 | 4.0 | 7.0 | 0.00 | 0.00 | 0.00 | 33 | 1009.0 |
| 20260508161456 | 61 | 276 | 3.0 | 8.0 | 0.00 | 0.00 | 0.00 | 35 | 1008.9 |
| 20260508160956 | 60 | 46 | 2.0 | 8.0 | 0.00 | 0.00 | 0.00 | 37 | 1008.9 |
| 20260508160456 | 59 | 220 | 2.0 | 7.0 | 0.00 | 0.00 | 0.00 | 36 | 1008.9 |
| 20260508155956 | 59 | 217 | 2.0 | 9.0 | 0.00 | 0.00 | 0.00 | 34 | 1009.0 |
| 20260508155456 | 59 | 311 | 4.0 | 9.0 | 0.00 | 0.00 | 0.00 | 36 | 1009.1 |
| 20260508154956 | 59 | 159 | 1.0 | 9.0 | 0.00 | 0.00 | 0.00 | 32 | 1009.2 |
| 20260508154456 | 59 | 305 | 3.0 | 6.0 | 0.00 | 0.00 | 0.00 | 40 | 1009.2 |
| 20260508153956 | 59 | 258 | 3.0 | 6.0 | 0.00 | 0.00 | 0.00 | 34 | 1009.2 |
| 20260508153456 | 59 | 271 | 2.0 | 9.0 | 0.00 | 0.00 | 0.00 | 35 | 1009.2 |
| 20260508152956 | 59 | 258 | 4.0 | 10.0 | 0.00 | 0.00 | 0.00 | 37 | 1009.3 |
| 20260508152456 | 59 | 145 | 4.0 | 10.0 | 0.00 | 0.00 | 0.00 | 33 | 1009.3 |
| 20260508151956 | 59 | 232 | 4.0 | 9.0 | 0.00 | 0.00 | 0.00 | 36 | 1009.4 |
| 20260508151456 | 58 | 297 | 3.0 | 9.0 | 0.00 | 0.00 | 0.00 | 36 | 1009.4 |
| 20260508150956 | 58 | 233 | 2.0 | 13.0 | 0.00 | 0.00 | 0.00 | 33 | 1009.3 |
| 20260508150456 | 58 | 237 | 5.0 | 13.0 | 0.00 | 0.00 | 0.00 | 35 | 1009.4 |
| 20260508145957 | 58 | 211 | 2.0 | 5.0 | 0.00 | 0.00 | 0.00 | 40 | 1009.4 |
| 20260508145456 | 58 | 325 | 2.0 | 8.0 | 0.00 | 0.00 | 0.00 | 42 | 1009.5 |
| 20260508144957 | 58 | 242 | 4.0 | 8.0 | 0.00 | 0.00 | 0.00 | 41 | 1009.4 |
| 20260508144456 | 57 | 231 | 2.0 | 5.0 | 0.00 | 0.00 | 0.00 | 39 | 1009.5 |
| 20260508143956 | 57 | 303 | 2.0 | 5.0 | 0.00 | 0.00 | 0.00 | 40 | 1009.6 |
| 20260508143456 | 57 | 217 | 2.0 | 5.0 | 0.00 | 0.00 | 0.00 | 40 | 1009.5 |
| 20260508142956 | 56 | 164 | 3.0 | 8.0 | 0.00 | 0.00 | 0.00 | 38 | 1009.5 |
| 20260508142456 | 56 | 222 | 5.0 | 8.0 | 0.00 | 0.00 | 0.00 | 39 | 1009.6 |
| 20260508141956 | 56 | 146 | 3.0 | 6.0 | 0.00 | 0.00 | 0.00 | 42 | 1009.7 |
| 20260508141456 | 56 | 276 | 3.0 | 5.0 | 0.00 | 0.00 | 0.00 | 45 | 1009.8 |
| 20260508140956 | 55 | 334 | 3.0 | 5.0 | 0.00 | 0.00 | 0.00 | 46 | 1009.8 |
| 20260508140456 | 55 | 208 | 3.0 | 5.0 | 0.00 | 0.00 | 0.00 | 44 | 1009.7 |
| 20260508135959 | 55 | 322 | 3.0 | 5.0 | 0.00 | 0.00 | 0.00 | 47 | 1009.7 |
| 20260508135457 | 55 | 221 | 2.0 | 5.0 | 0.00 | 0.00 | 0.00 | 51 | 1009.8 |
| 20260508134957 | 54 | 197 | 1.0 | 5.0 | 0.00 | 0.00 | 0.00 | 53 | 1009.8 |
| 20260508134456 | 54 | 304 | 3.0 | 5.0 | 0.00 | 0.00 | 0.00 | 53 | 1009.8 |
| 20260508133958 | 53 | 213 | 1.0 | 5.0 | 0.00 | 0.00 | 0.00 | 58 | 1009.8 |
| 20260508133457 | 53 | 239 | 2.0 | 4.0 | 0.00 | 0.00 | 0.00 | 59 | 1009.8 |
| 20260508132957 | 52 | 320 | 1.0 | 3.0 | 0.00 | 0.00 | 0.00 | 62 | 1009.8 |
| 20260508132457 | 52 | 219 | 1.0 | 5.0 | 0.00 | 0.00 | 0.00 | 60 | 1010.0 |
| 20260508131958 | 52 | 211 | 2.0 | 5.0 | 0.00 | 0.00 | 0.00 | 61 | 1010.1 |
| 20260508131457 | 52 | 244 | 1.0 | 3.0 | 0.00 | 0.00 | 0.00 | 61 | 1010.1 |
| 20260508130957 | 51 | 266 | 0.0 | 4.0 | 0.00 | 0.00 | 0.00 | 65 | 1010.1 |
| 20260508130457 | 50 | 221 | 1.0 | 4.0 | 0.00 | 0.00 | 0.00 | 63 | 1010.1 |
| 20260508125958 | 50 | 220 | 1.0 | 3.0 | 0.00 | 0.00 | 0.00 | 64 | 1010.2 |
| 20260508125457 | 49 | 213 | 1.0 | 3.0 | 0.00 | 0.00 | 0.00 | 69 | 1010.1 |
| 20260508124958 | 47 | 218 | 1.0 | 3.0 | 0.00 | 0.00 | 0.00 | 74 | 1010.2 |
| 20260508124457 | 42 | 246 | 0.0 | 3.0 | 0.00 | 0.00 | 0.00 | 90 | 1010.2 |
| 20260508123957 | 40 | 180 | 1.0 | 3.0 | 0.00 | 0.00 | 0.00 | 91 | 1010.1 |
| 20260508123456 | 39 | 181 | 0.0 | 2.0 | 0.00 | 0.00 | 0.00 | 91 | 1010.2 |
| 20260508122957 | 38 | 181 | 1.0 | 2.0 | 0.00 | 0.00 | 0.00 | 91 | 1010.1 |
| 20260508122458 | 37 | 220 | 1.0 | 2.0 | 0.00 | 0.00 | 0.00 | 91 | 1010.1 |
| 20260508121957 | 36 | 55 | 0.0 | 1.0 | 0.00 | 0.00 | 0.00 | 90 | 1010.0 |
| 20260508121456 | 35 | 22 | 0.0 | 0.0 | 0.00 | 0.00 | 0.00 | 90 | 1010.0 |
| 20260508120957 | 34 | 22 | 0.0 | 0.0 | 0.00 | 0.00 | 0.00 | 90 | 1009.8 |
| 20260508120457 | 33 | 22 | 0.0 | 0.0 | 0.00 | 0.00 | 0.00 | 90 | 1009.6 |
| 20260508115955 | 32 | 22 | 0.0 | 0.0 | 0.00 | 0.00 | 0.00 | 89 | 1009.7 |
| 20260508115455 | 32 | 22 | 0.0 | 0.0 | 0.00 | 0.00 | 0.00 | 89 | 1009.6 |
| 20260508114956 | 31 | 22 | 0.0 | 0.0 | 0.00 | 0.00 | 0.00 | 88 | 1009.7 |
| 20260508114455 | 31 | 22 | 0.0 | 0.0 | 0.00 | 0.00 | 0.00 | 88 | 1009.5 |
| 20260508113955 | 31 | 22 | 0.0 | 0.0 | 0.00 | 0.00 | 0.00 | 88 | 1009.5 |
| 20260508113455 | 30 | 22 | 0.0 | 0.0 | 0.00 | 0.00 | 0.00 | 88 | 1009.5 |
| 20260508112955 | 30 | 22 | 0.0 | 0.0 | 0.00 | 0.00 | 0.00 | 87 | 1009.5 |
| 20260508105455 | 30 | 22 | 0.0 | 0.0 | 0.00 | 0.00 | 0.00 | 87 | 1009.4 |
| 20260508104955 | 30 | 22 | 0.0 | 0.0 | 0.00 | 0.00 | 0.00 | 86 | 1009.4 |
| 20260508104455 | 30 | 22 | 0.0 | 0.0 | 0.00 | 0.00 | 0.00 | 86 | 1009.4 |
| 20260508103955 | 30 | 22 | 0.0 | 0.0 | 0.00 | 0.00 | 0.00 | 86 | 1009.4 |
| 20260508103455 | 30 | 22 | 0.0 | 0.0 | 0.00 | 0.00 | 0.00 | 86 | 1009.4 |
| 20260508102956 | 30 | 22 | 0.0 | 0.0 | 0.00 | 0.00 | 0.00 | 86 | 1009.3 |
| 20260508102455 | 30 | 22 | 0.0 | 0.0 | 0.00 | 0.00 | 0.00 | 85 | 1009.4 |
| 20260508101957 | 30 | 22 | 0.0 | 0.0 | 0.00 | 0.00 | 0.00 | 85 | 1009.4 |
| 20260508101455 | 30 | 22 | 0.0 | 0.0 | 0.00 | 0.00 | 0.00 | 85 | 1009.4 |
| 20260508100955 | 30 | 22 | 0.0 | 0.0 | 0.00 | 0.00 | 0.00 | 85 | 1009.5 |
| 20260508100456 | 30 | 22 | 0.0 | 0.0 | 0.00 | 0.00 | 0.00 | 85 | 1009.5 |
| 20260508095956 | 30 | 22 | 0.0 | 0.0 | 0.00 | 0.00 | 0.00 | 85 | 1009.5 |
| 20260508095456 | 31 | 22 | 0.0 | 0.0 | 0.00 | 0.00 | 0.00 | 85 | 1009.6 |
| 20260508091455 | 31 | 22 | 0.0 | 0.0 | 0.00 | 0.00 | 0.00 | 84 | 1009.7 |
| 20260508090955 | 31 | 22 | 0.0 | 0.0 | 0.00 | 0.00 | 0.00 | 83 | 1009.6 |
| 20260508090455 | 32 | 22 | 0.0 | 0.0 | 0.00 | 0.00 | 0.00 | 83 | 1009.6 |
| 20260508085958 | 32 | 22 | 0.0 | 0.0 | 0.00 | 0.00 | 0.00 | 83 | 1009.6 |
| 20260508085457 | 32 | 22 | 0.0 | 0.0 | 0.00 | 0.00 | 0.00 | 83 | 1009.6 |
| 20260508084956 | 32 | 22 | 0.0 | 0.0 | 0.00 | 0.00 | 0.00 | 83 | 1009.6 |
| 20260508084457 | 32 | 22 | 0.0 | 0.0 | 0.00 | 0.00 | 0.00 | 83 | 1009.6 |
| 20260508083958 | 32 | 22 | 0.0 | 0.0 | 0.00 | 0.00 | 0.00 | 83 | 1009.6 |
| 20260508083456 | 33 | 22 | 0.0 | 0.0 | 0.00 | 0.00 | 0.00 | 83 | 1009.6 |
| 20260508082957 | 33 | 22 | 0.0 | 0.0 | 0.00 | 0.00 | 0.00 | 83 | 1009.6 |
| 20260508082456 | 33 | 22 | 0.0 | 0.0 | 0.00 | 0.00 | 0.00 | 82 | 1009.7 |
| 20260508081955 | 33 | 22 | 0.0 | 0.0 | 0.00 | 0.00 | 0.00 | 83 | 1009.7 |
| 20260508081456 | 33 | 22 | 0.0 | 0.0 | 0.00 | 0.00 | 0.00 | 83 | 1009.8 |
| 20260508080956 | 34 | 22 | 0.0 | 0.0 | 0.00 | 0.00 | 0.00 | 83 | 1009.8 |
| 20260508080455 | 34 | 22 | 0.0 | 0.0 | 0.00 | 0.00 | 0.00 | 82 | 1009.9 |
| 20260508075956 | 34 | 22 | 0.0 | 0.0 | 0.00 | 0.00 | 0.00 | 82 | 1009.9 |
| 20260508075457 | 34 | 22 | 0.0 | 0.0 | 0.00 | 0.00 | 0.00 | 83 | 1009.8 |
| 20260508074957 | 34 | 22 | 0.0 | 0.0 | 0.00 | 0.00 | 0.00 | 83 | 1009.9 |
| 20260508074457 | 35 | 22 | 0.0 | 1.0 | 0.00 | 0.00 | 0.00 | 83 | 1009.8 |
| 20260508073957 | 35 | 22 | 0.0 | 1.0 | 0.00 | 0.00 | 0.00 | 82 | 1010.0 |
| 20260508073457 | 35 | 22 | 0.0 | 2.0 | 0.00 | 0.00 | 0.00 | 82 | 1009.9 |
| 20260508072956 | 35 | 22 | 1.0 | 2.0 | 0.00 | 0.00 | 0.00 | 81 | 1010.0 |
| 20260508072456 | 35 | 22 | 0.0 | 0.0 | 0.00 | 0.00 | 0.00 | 81 | 1009.9 |
| 20260508071956 | 35 | 22 | 0.0 | 0.0 | 0.00 | 0.00 | 0.00 | 81 | 1009.8 |
| 20260508071456 | 36 | 22 | 0.0 | 2.0 | 0.00 | 0.00 | 0.00 | 81 | 1009.8 |
| 20260508070957 | 36 | 22 | 0.0 | 2.0 | 0.00 | 0.00 | 0.00 | 81 | 1009.9 |
| 20260508070457 | 36 | 22 | 0.0 | 0.0 | 0.00 | 0.00 | 0.00 | 80 | 1009.9 |
| 20260508065957 | 36 | 22 | 0.0 | 0.0 | 0.00 | 0.00 | 0.00 | 80 | 1010.0 |
| 20260508065455 | 36 | 22 | 0.0 | 0.0 | 0.00 | 0.00 | 0.00 | 79 | 1010.0 |
| 20260508064955 | 37 | 22 | 0.0 | 0.0 | 0.00 | 0.00 | 0.00 | 79 | 1009.9 |
| 20260508064455 | 37 | 22 | 0.0 | 0.0 | 0.00 | 0.00 | 0.00 | 79 | 1009.9 |
| 20260508063955 | 37 | 22 | 0.0 | 0.0 | 0.00 | 0.00 | 0.00 | 79 | 1009.8 |
| 20260508063455 | 37 | 22 | 0.0 | 0.0 | 0.00 | 0.00 | 0.00 | 79 | 1009.9 |
| 20260508062956 | 37 | 22 | 0.0 | 0.0 | 0.00 | 0.00 | 0.00 | 79 | 1009.9 |
| 20260508062455 | 37 | 22 | 0.0 | 1.0 | 0.00 | 0.00 | 0.00 | 80 | 1010.0 |
| 20260508061955 | 37 | 22 | 0.0 | 1.0 | 0.00 | 0.00 | 0.00 | 79 | 1010.1 |
| 20260508061455 | 38 | 22 | 0.0 | 0.0 | 0.00 | 0.00 | 0.00 | 79 | 1010.1 |
| 20260508060955 | 38 | 22 | 0.0 | 0.0 | 0.00 | 0.00 | 0.00 | 79 | 1010.0 |
| 20260508060456 | 38 | 22 | 0.0 | 0.0 | 0.00 | 0.00 | 0.00 | 79 | 1010.1 |
| 20260508055956 | 38 | 22 | 0.0 | 0.0 | 0.00 | 0.00 | 0.00 | 78 | 1010.2 |
| 20260508055457 | 38 | 22 | 0.0 | 0.0 | 0.00 | 0.00 | 0.00 | 78 | 1010.2 |
| 20260508054957 | 38 | 22 | 0.0 | 0.0 | 0.00 | 0.00 | 0.00 | 78 | 1010.1 |
| 20260508054456 | 38 | 22 | 0.0 | 0.0 | 0.00 | 0.00 | 0.00 | 78 | 1010.2 |
| 20260508053956 | 39 | 22 | 0.0 | 0.0 | 0.00 | 0.00 | 0.00 | 78 | 1010.1 |
| 20260508053456 | 39 | 22 | 0.0 | 0.0 | 0.00 | 0.00 | 0.00 | 77 | 1010.1 |